Location: Newark
(44.6028°N, 124.0883°W)
Time: 08:24:08
(UTC+00:00)

Vanguard 1 - All Passes

Search period start: 23 October 2019 00:00
Search period end: 02 November 2019 00:00
Orbit: 653 x 3830 km, 34.2° (Epoch: 22 October)

Date Brightness Start Highest point End Pass type
(mag) Time Alt. Az. Time Alt. Az. Time Alt. Az.
23 Oct - 01:36:06 10° SSW 01:41:34 26° SE 01:49:56 10° E visible
23 Oct - 03:53:25 10° WSW 04:01:34 50° S 04:16:24 10° ESE visible
23 Oct - 06:12:46 10° W 06:23:47 48° SSW 06:42:25 10° SE visible
23 Oct - 08:34:28 10° W 08:47:10 30° SSW 09:04:30 10° SSE visible
24 Oct - 01:56:14 10° SSW 02:02:05 32° SSE 02:11:34 10° E visible
24 Oct - 04:14:08 10° WSW 04:22:31 50° S 04:37:46 10° ESE visible
24 Oct - 06:33:48 10° W 06:44:55 43° SSW 07:03:07 10° SE visible
24 Oct - 08:56:31 10° W 09:08:11 24° SW 09:23:21 10° S visible
25 Oct - 00:02:54 10° SSE 00:04:02 10° SE 00:05:16 10° SE daylight
25 Oct - 02:16:35 10° SW 02:22:43 37° SSE 02:33:04 10° E visible
25 Oct - 04:34:54 10° WSW 04:43:31 49° S 04:59:02 10° ESE visible
25 Oct - 06:54:57 10° W 07:06:01 37° SSW 07:23:29 10° SE visible
25 Oct - 09:19:24 10° WSW 09:29:11 18° SW 09:41:07 10° S visible
26 Oct - 00:21:00 10° S 00:24:22 16° SE 00:28:39 10° ESE daylight
26 Oct - 02:37:05 10° SW 02:43:27 41° SSE 02:54:30 10° E visible
26 Oct - 04:55:46 10° WSW 05:04:32 46° S 05:20:08 10° ESE visible
26 Oct - 07:16:19 10° W 07:27:08 31° SSW 07:43:25 10° SSE visible
26 Oct - 09:44:32 10° WSW 09:50:09 12° SW 09:56:23 10° SSW night (unlit)
27 Oct - 00:40:37 10° SSW 00:44:48 21° SSE 00:50:36 10° ESE daylight
27 Oct - 02:57:42 10° WSW 03:04:16 44° S 03:15:50 10° ESE visible
27 Oct - 05:16:41 10° W 05:25:36 42° SSW 05:41:01 10° SE visible
27 Oct - 07:37:59 10° WSW 07:48:13 25° SSW 08:02:48 10° SSE visible
28 Oct - 01:00:41 10° SSW 01:05:20 27° SSE 01:12:10 10° E daylight
28 Oct - 03:18:24 10° WSW 03:25:09 44° S 03:37:07 10° ESE visible
28 Oct - 05:37:43 10° W 05:46:40 37° SSW 06:01:38 10° SE visible
28 Oct - 08:00:13 10° WSW 08:09:17 20° SSW 08:21:22 10° S night (unlit)
29 Oct - 01:21:01 10° SW 01:25:57 32° SSE 01:33:35 10° ESE daylight
29 Oct - 03:39:10 10° WSW 03:46:05 43° S 03:58:15 10° ESE visible
29 Oct - 05:58:54 10° WSW 06:07:44 32° SSW 06:21:54 10° SSE visible
29 Oct - 08:23:41 10° WSW 08:30:22 14° SW 08:38:26 10° S night (unlit)
29 Oct - 23:25:45 10° S 23:27:46 12° SE 23:30:01 10° ESE daylight
30 Oct - 01:41:30 10° SW 01:46:40 35° SSE 01:54:53 10° ESE visible
30 Oct - 04:00:01 10° WSW 04:07:03 40° S 04:19:14 10° SE visible
30 Oct - 06:20:20 10° WSW 06:28:49 26° SSW 06:41:41 10° SSE visible
30 Oct - 23:45:05 10° SSW 23:48:16 17° SSE 23:52:09 10° ESE daylight
31 Oct - 02:02:07 10° WSW 02:07:27 37° S 02:16:06 10° ESE visible
31 Oct - 04:20:57 10° WSW 04:28:03 36° S 04:40:01 10° SE visible
31 Oct - 06:42:11 10° WSW 06:49:56 20° SSW 07:00:48 10° SSE visible
01 Nov - 00:05:06 10° SSW 00:08:51 22° SSE 00:13:42 10° ESE daylight
01 Nov - 02:22:49 10° WSW 02:28:17 38° S 02:37:13 10° ESE visible
01 Nov - 04:42:01 10° WSW 04:49:04 31° SSW 05:00:29 10° SE visible
01 Nov - 07:04:54 10° WSW 07:11:01 15° SSW 07:18:47 10° S visible
